Regional Weather Roundup
Issued by NWS

Home | Current Version | Previous Version | Text Only | Print | Product List | Glossary On
Versions: 1 2 3 4 5 6 7 8 9 10 11 12 13 14 15 16 17 18 19 20 21 22 23 24 25 26 27
000
ASCA42 TJSJ 281610
RWRPR
PUERTO RICO/U.S. VIRGIN ISLANDS HOURLY WEATHER ROUNDUP
NATIONAL WEATHER SERVICE SAN JUAN PR
1200 PM AST SAT MAY 28 2016

PRZ001-004-281700-
PUERTO RICO

CITY           SKY/WX    TMP DP  RH WIND       PRES   REMARKS
SAN JUAN LMM   PTSUNNY   86  75  70 E13       30.02F HX  95
AGUADILLA      MOSUNNY   86  75  70 E13       30.03F HX  95
CEIBA          RAIN      77  75  94 S5        30.07R FOG
$$

PRZ006-007-281700-
U.S. VIRGIN ISLANDS

CITY           SKY/WX    TMP DP  RH WIND       PRES   REMARKS
CHARLOTTE AMA  MOSUNNY   86  77  74 E16       30.03F HX  97
CHRISTIANSTED  MOSUNNY   82  75  78 E13       30.05F
$$

HOURLY WEATHER ROUNDUP FOR THE NEWS MEDIA

CITY           SKY/WX    TMP DP  RH WIND       PRES   REMARKS
ORLANDO        MOSUNNY   87  66  49 N7        30.04F
NEW YORK       MOSUNNY   78  62  57 S10       30.15R
NEWARK         MOSUNNY   88  66  48 VRB7      30.12S HX  90
CHICAGO        CLOUDY    75  65  70 S20G26    29.91R
HARTFORD       SUNNY     81  65  58 SW8       30.09F
BOSTON         MOSUNNY   86  67  52 S7        30.07S
DALLAS         CLOUDY    74  65  73 S7        29.97R
PHILADELPHIA   SUNNY     83  65  54 SW7       30.16S
LOS ANGELES    CLOUDY    62  56  80 SW3       29.90R
WASHINGTON DC  FAIR      84  66  54 SW8       30.16S



USA.gov is the U.S. government's official web portal to all federal, state and local government web resources and services.